OK1HRA-8 Weather Reports


time (UTC)temp
C
wind
direction
speed
KPH
gust
KPH
rain 1hr
cm
rain 24hr
cm
rain mn
cm
humidity
%
barometer
mb
20260503235801 17 -1 0.0 0.0 0.00 0.00 0.00 4 994.3
20260503235254 17 -1 0.0 0.0 0.00 0.00 0.00 4 995.0
20260503234747 17 -1 0.0 0.0 0.00 0.00 0.00 4 994.7
20260503234240 16 -1 0.0 0.0 0.00 0.00 0.00 4 994.2
20260503233733 17 -1 0.0 0.0 0.00 0.00 0.00 4 993.6
20260503233225 17 -1 0.0 0.0 0.00 0.00 0.00 4 996.8
20260503232717 17 -1 6.4 11.3 0.00 0.00 0.00 4 997.2
20260503232210 17 -1 11.3 16.1 0.00 0.00 0.00 4 996.8
20260503231703 17 -1 11.3 20.9 0.00 0.00 0.00 4 997.0
20260503231156 17 -1 11.3 20.9 0.00 0.00 0.00 4 996.7
20260503230649 17 -1 9.7 17.7 0.00 0.00 0.00 4 997.0
20260503230142 17 -1 12.9 20.9 0.00 0.00 0.00 4 996.8
20260503225635 17 -1 16.1 25.7 0.00 0.00 0.00 4 996.9
20260503225128 17 -1 16.1 25.7 0.00 0.00 0.00 4 995.3
20260503224621 17 -1 14.5 22.5 0.00 0.00 0.00 4 996.2
20260503224114 17 -1 14.5 22.5 0.00 0.00 0.00 4 996.4
20260503223606 17 -1 11.3 20.9 0.00 0.00 0.00 3 997.4
20260503223059 17 -1 9.7 17.7 0.00 0.00 0.00 3 997.1
20260503222551 17 -1 11.3 24.1 0.00 0.00 0.00 3 997.0
20260503222044 17 -1 14.5 29.0 0.00 0.00 0.00 4 996.3
20260503221537 17 -1 17.7 32.2 0.00 0.00 0.00 4 996.3
20260503221030 17 -1 20.9 32.2 0.00 0.00 0.00 4 996.1
20260503220523 18 -1 25.7 45.1 0.00 0.00 0.00 4 995.5
20260503220015 18 -1 24.1 40.2 0.00 0.00 0.00 4 995.7
20260503215508 18 -1 17.7 29.0 0.00 0.00 0.00 3 996.3
20260503215000 18 -1 19.3 35.4 0.00 0.00 0.00 3 996.4
20260503214452 18 -1 16.1 25.7 0.00 0.00 0.00 3 996.7
20260503213945 18 -1 8.0 14.5 0.00 0.00 0.00 3 998.2
20260503213437 18 -1 9.7 16.1 0.00 0.00 0.00 3 997.5
20260503212930 18 -1 9.7 14.5 0.00 0.00 0.00 4 995.4
20260503212423 17 -1 0.0 0.0 0.00 0.00 0.00 4 994.6
20260503211915 18 -1 0.0 0.0 0.00 0.00 0.00 4 994.1
20260503211408 18 -1 6.4 8.0 0.00 0.00 0.00 4 994.5
20260503210901 18 -1 6.4 12.9 0.00 0.00 0.00 4 994.8
20260503210354 18 -1 12.9 27.4 0.00 0.00 0.00 4 994.7
20260503205846 18 -1 9.7 22.5 0.00 0.00 0.00 3 995.8
20260503205338 18 -1 11.3 22.5 0.00 0.00 0.00 3 996.5
20260503204830 18 -1 11.3 22.5 0.00 0.00 0.00 3 996.1
20260503204322 18 -1 14.5 33.8 0.00 0.00 0.00 3 996.2
20260503203814 19 -1 17.7 32.2 0.00 0.00 0.00 3 996.3
20260503203306 19 -1 19.3 45.1 0.00 0.00 0.00 3 996.3
20260503202759 19 -1 14.5 30.6 0.00 0.00 0.00 3 996.8
20260503202251 19 -1 17.7 30.6 0.00 0.00 0.00 3 996.5
20260503201744 19 -1 19.3 35.4 0.00 0.00 0.00 3 996.8
20260503201236 20 -1 19.3 35.4 0.00 0.00 0.00 3 996.5
20260503200728 20 -1 19.3 33.8 0.00 0.00 0.00 3 996.1
20260503200220 20 -1 24.1 40.2 0.00 0.00 0.00 3 996.1
20260503195713 20 -1 25.7 43.5 0.00 0.00 0.00 3 996.1
20260503195206 20 -1 22.5 37.0 0.00 0.00 0.00 3 996.1
20260503194658 20 -1 19.3 32.2 0.00 0.00 0.00 3 996.3
20260503194151 20 -1 20.9 30.6 0.00 0.00 0.00 3 995.7
20260503193643 20 -1 20.9 30.6 0.00 0.00 0.00 3 995.8
20260503193136 20 -1 20.9 40.2 0.00 0.00 0.00 3 995.5
20260503192628 20 -1 20.9 37.0 0.00 0.00 0.00 3 995.8
20260503192121 20 -1 17.7 33.8 0.00 0.00 0.00 3 995.7
20260503191614 20 -1 12.9 25.7 0.00 0.00 0.00 3 995.6
20260503191107 20 -1 11.3 25.7 0.00 0.00 0.00 3 995.3
20260503190600 20 -1 11.3 30.6 0.00 0.00 0.00 2 995.9
20260503190053 20 -1 14.5 29.0 0.00 0.00 0.00 2 994.6
20260503185546 21 -1 17.7 27.4 0.00 0.00 0.00 2 995.4
20260503185038 21 -1 20.9 27.4 0.00 0.00 0.00 2 995.1
20260503184531 21 -1 19.3 30.6 0.00 0.00 0.00 2 995.4
20260503184024 21 -1 16.1 24.1 0.00 0.00 0.00 2 995.3
20260503183517 21 -1 16.1 24.1 0.00 0.00 0.00 2 995.2
20260503183009 21 -1 16.1 24.1 0.00 0.00 0.00 2 995.0
20260503182502 21 -1 17.7 25.7 0.00 0.00 0.00 2 995.0
20260503181955 21 -1 17.7 25.7 0.00 0.00 0.00 2 995.1
20260503181448 21 -1 17.7 24.1 0.00 0.00 0.00 2 994.9
20260503180941 22 -1 16.1 24.1 0.00 0.00 0.00 2 994.9
20260503180433 22 -1 16.1 22.5 0.00 0.00 0.00 2 995.0
20260503175925 22 -1 16.1 22.5 0.00 0.00 0.00 2 994.7
20260503175417 22 -1 16.1 22.5 0.00 0.00 0.00 2 995.1
20260503174910 22 -1 12.9 20.9 0.00 0.00 0.00 2 995.3
20260503174402 22 -1 11.3 19.3 0.00 0.00 0.00 2 995.7
20260503173855 22 -1 11.3 22.5 0.00 0.00 0.00 2 995.4
20260503173348 22 -1 12.9 25.7 0.00 0.00 0.00 2 994.8
20260503172841 22 -1 11.3 19.3 0.00 0.00 0.00 2 996.0
20260503172334 22 -1 8.0 16.1 0.00 0.00 0.00 2 995.4
20260503171826 22 -1 12.9 24.1 0.00 0.00 0.00 2 994.9
20260503171319 22 -1 11.3 17.7 0.00 0.00 0.00 2 995.8
20260503170812 22 -1 16.1 29.0 0.00 0.00 0.00 2 995.1
20260503170304 23 -1 9.7 25.7 0.00 0.00 0.00 2 996.0
20260503160139 25 -1 12.9 27.4 0.00 0.00 0.00 1 998.4
20260503150518 25 -1 11.3 25.7 0.00 0.00 0.00 1 1000.2
20260503131236 24 -1 12.9 25.7 0.00 0.00 0.00 2 999.9
20260503130728 25 -1 12.9 24.1 0.00 0.00 0.00 2 1000.9
20260503130221 25 -1 9.7 19.3 0.00 0.00 0.00 1 1003.0
20260503110429 23 -1 12.9 24.1 0.00 0.00 0.00 2 1003.9
20260503100259 23 -1 11.3 22.5 0.00 0.00 0.00 2 1004.6
20260503090132 22 -1 8.0 12.9 0.00 0.00 0.00 2 1007.1
20260503081525 20 -1 6.4 8.0 0.00 0.00 0.00 2 1006.8
20260503081019 19 -1 0.0 0.0 0.00 0.00 0.00 3 1003.6
20260503080511 19 -1 0.0 0.0 0.00 0.00 0.00 3 1003.0
20260503072918 17 -1 0.0 0.0 0.00 0.00 0.00 3 1006.1
20260503072410 17 -1 0.0 0.0 0.00 0.00 0.00 3 1004.8
20260503071902 16 -1 0.0 0.0 0.00 0.00 0.00 3 1005.8
20260503071355 16 -1 6.4 9.7 0.00 0.00 0.00 3 1005.7
20260503070848 16 -1 6.4 9.7 0.00 0.00 0.00 3 1005.6
20260503070341 16 -1 6.4 11.3 0.00 0.00 0.00 3 1005.0
20260503060211 15 -1 0.0 0.0 0.00 0.00 0.00 4 1007.3
20260503054649 15 -1 0.0 0.0 0.00 0.00 0.00 3 1006.7
20260503054142 15 -1 0.0 0.0 0.00 0.00 0.00 4 1006.7
20260503053635 16 -1 0.0 0.0 0.00 0.00 0.00 3 1007.3
20260503053128 16 -1 0.0 0.0 0.00 0.00 0.00 3 1005.7
20260503052621 15 -1 0.0 0.0 0.00 0.00 0.00 3 1005.0
20260503052114 15 -1 0.0 0.0 0.00 0.00 0.00 3 1004.4
20260503051607 15 -1 0.0 0.0 0.00 0.00 0.00 3 1005.5
20260503051100 15 -1 0.0 0.0 0.00 0.00 0.00 3 1005.0
20260503050553 15 -1 0.0 0.0 0.00 0.00 0.00 3 1004.4
20260503050046 13 -1 0.0 0.0 0.00 0.00 0.00 3 1003.8
20260503045539 13 -1 0.0 0.0 0.00 0.00 0.00 3 1001.7
20260503045032 13 -1 0.0 0.0 0.00 0.00 0.00 3 1000.6
20260503044524 13 -1 0.0 0.0 0.00 0.00 0.00 3 1000.2
20260503044017 14 -1 0.0 0.0 0.00 0.00 0.00 3 1001.2
20260503043510 13 -1 0.0 0.0 0.00 0.00 0.00 3 1000.8
20260503043003 12 -1 0.0 0.0 0.00 0.00 0.00 4 999.6
20260503042456 12 -1 0.0 0.0 0.00 0.00 0.00 4 999.8
20260503041949 12 -1 0.0 0.0 0.00 0.00 0.00 4 998.8
20260503041442 12 -1 0.0 0.0 0.00 0.00 0.00 4 998.9
20260503040935 12 -1 0.0 0.0 0.00 0.00 0.00 4 998.5
20260503040428 12 -1 0.0 0.0 0.00 0.00 0.00 4 998.9
20260503035921 12 -1 0.0 0.0 0.00 0.00 0.00 4 997.4
20260503035414 12 -1 0.0 0.0 0.00 0.00 0.00 4 997.1
20260503034907 12 -1 0.0 0.0 0.00 0.00 0.00 4 996.9
20260503034400 12 -1 0.0 0.0 0.00 0.00 0.00 4 996.5
20260503033853 12 -1 0.0 0.0 0.00 0.00 0.00 4 996.9
20260503033346 12 -1 0.0 0.0 0.00 0.00 0.00 4 997.1
20260503032838 12 -1 0.0 0.0 0.00 0.00 0.00 4 996.9
20260503032331 12 -1 0.0 0.0 0.00 0.00 0.00 4 995.9
20260503031823 11 -1 0.0 0.0 0.00 0.00 0.00 4 996.0
20260503031316 11 -1 0.0 0.0 0.00 0.00 0.00 4 996.5
20260503030809 11 -1 0.0 0.0 0.00 0.00 0.00 4 996.6
20260503030303 11 -1 0.0 0.0 0.00 0.00 0.00 4 996.0
20260503025755 11 -1 0.0 0.0 0.00 0.00 0.00 4 996.7
20260503025248 12 -1 0.0 0.0 0.00 0.00 0.00 4 996.8
20260503024741 12 -1 0.0 0.0 0.00 0.00 0.00 4 997.2
20260503024234 12 -1 0.0 0.0 0.00 0.00 0.00 4 996.3
20260503023727 12 -1 0.0 0.0 0.00 0.00 0.00 4 996.9
20260503023220 12 -1 0.0 0.0 0.00 0.00 0.00 4 997.3
20260503022713 12 -1 0.0 0.0 0.00 0.00 0.00 4 997.1
20260503022205 13 -1 0.0 0.0 0.00 0.00 0.00 4 998.0
20260503021658 13 -1 0.0 0.0 0.00 0.00 0.00 4 996.3
20260503021150 13 -1 0.0 0.0 0.00 0.00 0.00 4 996.2
20260503020642 13 -1 0.0 0.0 0.00 0.00 0.00 4 996.7
20260503020135 13 -1 0.0 0.0 0.00 0.00 0.00 4 996.9
20260503015628 14 -1 0.0 0.0 0.00 0.00 0.00 4 996.3
20260503015120 14 -1 0.0 0.0 0.00 0.00 0.00 4 996.5
20260503014613 14 -1 0.0 0.0 0.00 0.00 0.00 4 996.2
20260503014106 14 -1 0.0 0.0 0.00 0.00 0.00 4 996.7
20260503013559 13 -1 0.0 0.0 0.00 0.00 0.00 3 998.6
20260503013052 13 -1 9.7 16.1 0.00 0.00 0.00 4 997.1
20260503012545 13 -1 0.0 0.0 0.00 0.00 0.00 4 995.5
20260503012038 13 -1 0.0 0.0 0.00 0.00 0.00 4 996.2
20260503011531 13 -1 0.0 0.0 0.00 0.00 0.00 3 997.7
20260503011024 14 -1 0.0 0.0 0.00 0.00 0.00 3 997.8
20260503010517 14 -1 0.0 0.0 0.00 0.00 0.00 3 998.0
20260503010010 14 -1 0.0 0.0 0.00 0.00 0.00 3 997.2
20260503005503 14 -1 0.0 0.0 0.00 0.00 0.00 3 997.8
20260503004956 14 -1 0.0 0.0 0.00 0.00 0.00 3 999.8
20260503004449 14 -1 0.0 0.0 0.00 0.00 0.00 3 1000.7
20260503003942 14 -1 0.0 0.0 0.00 0.00 0.00 3 998.2
20260503003435 14 -1 0.0 0.0 0.00 0.00 0.00 3 998.5
20260503002928 13 -1 0.0 0.0 0.00 0.00 0.00 3 999.1
20260503002419 14 -1 0.0 0.0 0.00 0.00 0.00 3 996.8
20260503001910 15 -1 0.0 0.0 0.00 0.00 0.00 3 999.8
20260503001403 15 -1 4.8 4.8 0.00 0.00 0.00 3 999.3
20260503000856 15 -1 0.0 0.0 0.00 0.00 0.00 3 999.7
20260503000349 15 -1 0.0 0.0 0.00 0.00 0.00 3 999.2